Location: *
(55.6049°S, 142.1985°W)
Time: 04:07:46
(UTC+00:00)

Cosmos 2219 - Pass Details

Date: 12 May 2021
Orbit: 832 x 861 km, 71.1° (Epoch: 23 June)

Event Time Altitude Azimuth Distance (km) Brightness Sun altitude
Exits shadow 13:53:12 20° 3° (N) 1,886 4.9 -27.9°
Maximum altitude 13:56:53 47° 67° (ENE) 1,137 4.1 -27.4°
Drops below altitude 10° 14:02:25 10° 139° (SE) 2,521 6.2 -26.6°
Sets 14:04:58 0° 144° (SE) 3,459 7.0 -26.3°
